Location: Adrasan
(36.3319°N, 30.4314°E)
Time: 11:47:26
(UTC+00:00)

Cosmos 2278 Rocket - Pass Details

Date: 09 December 2023
Orbit: 840 x 846 km, 71.0° (Epoch: 20 February)

Event Time Altitude Azimuth Distance (km) Brightness Sun altitude
Rises 17:13:38 0° 199° (SSW) 3,380 5.7 -29.5°
Reaches altitude 10° 17:16:04 10° 199° (SSW) 2,448 4.9 -30.0°
Enters shadow 17:19:54 46° 199° (SSW) 1,119 2.9 -30.8°
